{"data":{"norad_id":66163,"epoch":"2026-05-25T01:39:20.888064Z","epoch_age_seconds":69864,"freshness":"FRESH","line1":"1 66163U 25240T   26145.06899176  .00043409  00000+0  12867-2 0  9994","line2":"2 66163  53.1589  67.2332 0001027  77.8049 282.3068 15.34443356 33691","mean_motion":15.34443356,"eccentricity":0.0001027,"inclination_deg":53.1589,"raan_deg":67.2332,"arg_perigee_deg":77.8049,"mean_anomaly_deg":282.3068,"bstar":0.0012867,"rev_number":3369,"period_min":93.8451063944,"perigee_km":461.87183901373,"apogee_km":463.2769211312,"semimajor_km":6840.7113800725,"source":"CELESTRAK","updated_at":"2026-05-25T13:38:21.072486Z"}}